HORS 3 (RS81S)

Last updated on Tue Aug 25 2026 00:03:14 GMT+0000 (Coordinated Universal Time)

1 61753U 24199U 26236.64872555 .00044369 00000+0 55262-3 0 9996 2 61753 97.2858 114.0506 0006790 48.2971 311.8866 15.59780210148210
UTC large
Height (km)
Speed (km/s)
/
Latitude / Longitude
Inclination (degrees)
Orbital Period (minutes)
Azimuth
Elevation
Range (km)
Doppler Factor

Next 0 passes for location: London (51.5072 / 0.1276)

No passes found over London.
HORS 3 (RS81S)